Location: Brompton
(51.4000°N, 0.5333°E)
Time: 10:54:35
(UTC+00:00)

Cosmos 1898 Rocket - Pass Details

Date: 03 October 2021
Orbit: 752 x 784 km, 74.0° (Epoch: 17 October)

Event Time Altitude Azimuth Distance (km) Brightness Sun altitude
Rises 19:47:24 0° 215° (SW) 3,212 6.9 -21.8°
Reaches altitude 10° 19:49:47 10° 219° (SW) 2,295 6.1 -22.1°
Maximum altitude 19:54:56 60° 299° (WNW) 883 4.0 -22.9°
Drops below altitude 10° 20:00:10 10° 20° (NNE) 2,331 6.0 -23.6°
Sets 20:02:37 0° 24° (NNE) 3,267 6.8 -24.0°
